CAPE
0 0 0 0 120 290 555 709 691 610 560 511 484 370 313 258 293 214 96 1 0 0 0 0 0 0 0 0 0 0 0 0 0 0 0 0 0 0 0 0 0 0 0
0 0 0 0 0 0 105 383 638 738 648 554 502 454 431 253 80 70 4 0 0 0 0 0 0 0 0 0 0 0 0 0 0 0 0 0 0 0 0 0 0 0 0
0 0 0 0 0 0 0 159 648 839 742 650 551 506 426 119 11 9 4 0 0 0 0 0 0 0 0 0 0 0 0 0 0 0 0 0 0 0 0 0 0 0 0
0 0 0 0 0 0 0 0 554 803 807 738 540 397 239 96 37 11 0 0 0 0 0 0 0 0 0 0 0 0 0 0 0 0 0 0 0 0 0 0 0 0 0
0 0 0 0 0 0 0 0 253 685 782 707 470 235 72 38 0 0 0 0 0 0 0 0 0 0 0 0 0 0 0 0 0 0 0 0 0 0 0 0 0 0 0
0 0 0 0 0 0 0 0 127 449 685 686 472 300 72 26 0 0 0 0 0 0 0 0 0 0 0 0 0 0 0 0 0 0 0 0 0 0 0 0 0 0 0
0 0 0 0 0 0 0 15 101 476 566 380 418 273 80 64 1 1 0 0 0 0 0 0 0 0 0 0 0 0 0 0 0 0 0 0 0 0 0 0 0 0 0
0 0 0 0 0 0 0 0 3 396 429 416 391 224 43 5 1 0 0 0 0 0 0 0 0 0 0 0 0 0 0 0 0 0 0 0 0 0 0 0 0 0 0
0 0 0 0 0 0 0 0 0 312 402 288 145 91 3 0 1 0 0 0 0 0 0 0 0 0 0 0 0 0 0 0 0 0 0 0 0 0 0 0 0 0 0
0 0 0 0 0 0 0 0 0 52 157 155 84 1 0 0 1 0 0 0 0 0 0 0 0 0 0 0 0 0 0 0 0 0 0 0 0 0 0 0 0 0 0
0 0 0 0 0 0 0 0 11 65 98 75 99 91 0 0 0 1 0 0 0 0 0 0 0 0 0 0 0 0 0 0 0 0 0 0 0 0 0 0 0 0 0
0 0 0 0 0 0 0 0 2 132 108 25 8 4 0 0 0 1 0 0 0 0 0 0 0 0 0 0 0 0 0 0 0 0 0 0 0 0 0 0 0 0 0
0 0 0 0 0 0 0 0 47 185 42 16 0 0 0 1 0 0 0 0 0 0 0 0 0 0 0 0 0 0 0 0 0 0 0 0 0 0 0 0 0 0 0
3 0 0 0 0 0 16 95 129 98 1 1 0 1 0 1 1 0 0 0 0 0 0 0 0 0 0 0 0 0 0 0 0 0 0 0 0 0 0 0 0 0 0
3 4 2 3 3 1 2 185 342 137 54 29 0 0 0 1 0 0 0 0 0 0 0 0 0 0 0 0 0 0 0 0 0 0 0 0 0 0 0 0 0 0 0
6 5 6 4 0 1 11 4 0 223 8 1 0 0 0 0 0 0 0 0 0 0 0 0 0 0 0 0 0 0 0 0 0 0 0 0 0 0 0 0 0 0 0
4 4 9 0 5 5 168 35 0 0 0 0 0 0 0 0 1 0 0 0 0 0 0 0 0 0 0 0 0 0 0 0 0 0 0 0 0 0 0 0 0 0 0
3 2 5 5 7 86 171 41 0 0 0 0 1 0 1 1 1 0 0 0 0 0 0 0 0 0 0 0 0 0 0 0 0 0 0 0 0 0 0 0 0 0 0
3 4 5 1 75 199 197 0 1 1 0 1 1 0 0 0 0 0 0 0 0 0 0 0 0 0 0 0 0 0 0 0 0 0 0 0 0 0 0 0 0 0 0
2 2 16 76 30 27 0 0 0 0 0 0 0 2 0 0 0 0 0 0 0 0 0 0 0 0 0 0 0 0 0 0 0 0 0 0 0 0 0 0 0 0 0
6 0 18 3 1 1 0 0 2 0 0 0 0 0 0 0 0 0 0 0 0 0 0 0 0 0 0 0 0 0 0 0 0 0 0 0 0 0 0 0 0 0 0
0 0 2 3 1 1 1 1 1 0 0 0 0 0 0 0 0 0 0 0 0 0 0 0 0 0 0 0 0 0 0 0 0 0 0 0 0 0 0 0 0 0 0
0 0 1 1 0 0 1 1 1 1 0 0 0 0 0 0 0 0 0 0 0 0 0 0 0 0 0 0 0 0 0 0 0 0 0 0 0 0 0 0 0 0 0
0 0 0 1 0 1 1 1 0 0 1 0 0 0 0 0 0 0 0 0 0 0 0 0 0 0 0 0 0 0 0 0 0 0 0 0 0 0 0 0 0 0 0
0 0 0 0 0 0 0 0 0 0 1 0 0 1 1 0 0 0 0 0 0 0 0 0 0 0 0 0 0 0 0 0 0 0 0 0 0 0 0 0 0 0 0
0 0 1 0 0 0 0 1 1 1 1 0 1 1 0 0 0 0 0 0 0 0 0 0 0 0 0 0 0 0 0 0 0 0 0 0 0 0 0 0 0 0 0
CIN
0 0 0 0 -265 -182 -160 -147 -130 -154 -152 -101 -41 -20 -37 -29 -52 -58 -59 -103 0 0 0 0 0 0 0 0 0 0 0 0 0 0 0 0 0 0 0 0 0 0 0
0 0 0 0 -25 -9 -228 -176 -141 -115 -140 -118 -52 -9 -10 -27 -63 -48 -164 0 0 0 0 0 0 0 0 0 0 0 0 0 0 0 0 0 0 0 0 0 0 0 0
0 0 0 0 0 0 0 -219 -115 -77 -90 -66 -49 -4 -9 -77 -112 -102 -104 0 0 0 0 0 0 0 0 0 0 0 0 0 0 0 0 0 0 0 0 0 0 0 0
0 0 0 0 0 0 0 0 -99 -59 -37 -20 -18 -17 -33 -59 -65 -71 0 0 0 0 0 0 0 0 0 0 0 0 0 0 0 0 0 0 0 0 0 0 0 0 0
0 0 0 0 0 0 0 0 -138 -50 -6 -24 -9 -18 -52 -56 -24 -34 0 0 0 0 0 0 0 0 0 0 0 0 0 0 0 0 0 0 0 0 0 0 0 0 0
0 0 0 0 0 0 0 0 -179 -79 -5 0 -6 -1 -15 -54 0 0 0 0 0 0 0 0 0 0 0 0 0 0 0 0 0 0 0 0 0 0 0 0 0 0 0
0 0 0 0 0 0 0 -241 -187 -44 -16 -7 0 -5 -23 -28 0 0 0 0 0 0 0 0 0 0 0 0 0 0 0 0 0 0 0 0 0 0 0 0 0 0 0
0 0 0 0 0 0 0 0 -33 -60 -14 -1 0 -1 -37 -37 0 0 0 0 0 0 0 0 0 0 0 0 0 0 0 0 0 0 0 0 0 0 0 0 0 0 0
0 0 0 0 0 0 0 0 -7 -59 -6 -4 -1 -5 -67 0 0 0 0 0 0 0 0 0 0 0 0 0 0 0 0 0 0 0 0 0 0 0 0 0 0 0 0
0 0 0 0 0 0 0 0 0 -132 -58 -36 -10 0 0 0 0 0 0 0 0 0 0 0 0 0 0 0 0 0 0 0 0 0 0 0 0 0 0 0 0 0 0
0 0 0 0 0 0 0 0 -128 -59 -53 -44 -18 -3 0 0 0 0 0 0 0 0 0 0 0 0 0 0 0 0 0 0 0 0 0 0 0 0 0 0 0 0 0
0 0 0 0 0 0 0 0 -32 -14 -48 -83 -16 -47 0 0 0 0 0 0 0 0 0 0 0 0 0 0 0 0 0 0 0 0 0 0 0 0 0 0 0 0 0
0 0 0 0 0 0 0 0 -69 -6 -68 -130 0 0 0 0 0 0 0 0 0 0 0 0 0 0 0 0 0 0 0 0 0 0 0 0 0 0 0 0 0 0 0
-1 -1 0 0 0 0 -92 -35 -33 -23 -22 -138 0 0 0 0 0 0 0 0 0 0 0 0 0 0 0 0 0 0 0 0 0 0 0 0 0 0 0 0 0 0 0
-2 -1 -2 -1 0 0 0 -23 0 -41 -132 -202 -1 0 0 0 0 0 0 0 0 0 0 0 0 0 0 0 0 0 0 0 0 0 0 0 0 0 0 0 0 0 0
0 0 -1 -2 0 0 -76 -7 0 -27 -64 -103 0 0 0 0 0 0 0 0 0 0 0 0 0 0 0 0 0 0 0 0 0 0 0 0 0 0 0 0 0 0 0
0 0 0 -2 0 0 -43 -176 0 0 0 0 0 0 0 0 0 0 0 0 0 0 0 0 0 0 0 0 0 0 0 0 0 0 0 0 0 0 0 0 0 0 0
0 -1 0 0 0 -77 -44 -144 0 0 0 0 0 0 0 0 0 0 0 0 0 0 0 0 0 0 0 0 0 0 0 0 0 0 0 0 0 0 0 0 0 0 0
0 0 0 0 -60 -36 -47 0 0 0 0 0 0 0 0 0 0 0 0 0 0 0 0 0 0 0 0 0 0 0 0 0 0 0 0 0 0 0 0 0 0 0 0
0 0 -29 -41 -132 -210 0 0 0 0 0 0 0 0 0 0 0 0 0 0 0 0 0 0 0 0 0 0 0 0 0 0 0 0 0 0 0 0 0 0 0 0 0
0 0 -105 -149 0 0 0 0 0 0 0 0 0 0 0 0 0 0 0 0 0 0 0 0 0 0 0 0 0 0 0 0 0 0 0 0 0 0 0 0 0 0 0
0 0 -143 -182 0 0 0 0 0 0 0 0 0 0 0 0 0 0 0 0 0 0 0 0 0 0 0 0 0 0 0 0 0 0 0 0 0 0 0 0 0 0 0
0 0 0 0 0 0 0 0 0 0 0 0 0 0 0 0 0 0 0 0 0 0 0 0 0 0 0 0 0 0 0 0 0 0 0 0 0 0 0 0 0 0 0
0 0 0 0 0 0 0 0 0 0 0 0 -1 -1 -1 0 0 0 0 0 0 0 0 0 0 0 0 0 0 0 0 0 0 0 0 0 0 0 0 0 0 0 0
0 0 0 0 0 0 0 0 0 0 0 -1 0 0 0 0 0 0 0 0 0 0 0 0 0 0 0 0 0 0 0 0 0 0 0 0 0 0 0 0 0 0 0
0 0 0 0 0 0 0 0 0 0 0 0 0 0 0 0 0 0 0 0 0 0 0 0 0 0 0 0 0 0 0 0 0 0 0 0 0 0 0 0 0 0 0
Wind_Speed
5 5 7 7 7 7 7 10 12 12 11 12 15 16 17 15 15 13 12 10 11 9 6 8 8 7 5 4 4 4 4 4 6 2 2 0 2 4 5 5 5 5 4
5 5 7 7 8 8 9 11 11 12 10 13 14 16 18 17 13 11 12 12 13 12 10 8 9 6 6 5 5 6 5 4 6 8 1 1 3 2 3 5 4 3 3
5 5 7 7 8 10 10 11 11 12 11 11 13 16 18 17 16 14 11 11 11 11 13 12 10 10 7 4 4 6 5 4 5 7 4 0 3 2 4 3 2 2 2
6 7 7 8 8 10 11 11 11 12 12 11 14 15 15 14 14 14 13 10 9 9 11 11 12 12 12 9 7 8 6 7 5 5 3 3 3 2 2 3 1 1 2
7 7 8 8 9 11 12 11 12 11 12 12 13 15 15 13 11 13 14 14 12 10 10 10 10 10 14 12 9 7 9 6 6 5 3 2 2 2 4 2 2 1 1
7 9 7 8 11 13 13 9 11 11 13 13 17 17 17 12 17 19 15 12 12 12 11 7 7 12 11 13 12 15 15 13 6 5 3 4 4 3 3 3 3 2 2
7 8 9 9 11 12 12 10 12 12 12 16 15 15 17 16 20 19 19 12 13 13 12 11 8 6 10 9 11 12 8 8 12 8 8 5 5 6 5 4 3 3 3
8 8 9 9 11 12 11 11 13 10 12 11 14 18 16 12 23 22 21 14 12 12 13 13 12 10 9 12 11 10 7 5 7 4 7 7 5 6 5 5 5 5 3
11 11 11 9 10 11 12 11 12 7 10 11 10 14 15 11 24 24 20 13 13 13 11 11 13 12 13 17 14 12 8 5 9 11 11 11 9 9 9 6 3 4 2
15 14 12 9 9 11 11 11 10 6 8 6 8 10 14 14 24 25 20 12 13 10 9 9 16 15 15 16 16 14 13 8 10 6 6 10 8 7 5 3 5 5 2
16 14 12 7 9 12 12 8 7 7 4 5 9 5 13 17 20 26 22 14 12 11 11 8 8 20 15 15 17 13 15 11 10 9 7 6 6 5 5 5 4 5 3
15 14 11 7 7 10 10 12 8 8 8 8 9 6 5 14 24 19 23 18 16 13 12 10 10 18 17 16 12 15 18 13 8 8 7 5 5 4 4 5 6 6 5
14 14 11 8 8 11 10 12 7 11 9 8 8 10 6 9 14 25 21 22 18 13 11 12 19 18 17 11 17 19 15 8 8 7 6 4 4 4 5 5 6 8 7
14 12 9 9 11 11 9 9 8 9 10 8 6 8 9 8 12 13 12 15 15 12 16 13 15 13 9 10 12 11 7 7 8 7 5 4 4 4 3 2 4 3 4
14 13 12 9 9 10 8 7 7 11 12 12 9 10 12 11 13 19 19 14 13 12 15 11 10 9 8 8 8 8 7 6 6 5 5 5 4 4 3 3 3 2 4
13 10 9 7 7 8 8 2 8 10 13 11 17 18 10 12 22 19 20 21 21 23 14 12 11 11 11 10 9 8 5 7 5 5 5 5 5 7 5 3 2 4 5
13 11 9 9 8 9 7 6 5 8 8 15 15 14 20 24 23 24 25 28 29 19 11 12 11 10 9 9 9 7 5 6 8 7 7 5 5 5 6 5 4 4 3
13 16 9 8 9 8 6 7 7 9 9 6 6 12 19 26 27 27 28 21 10 4 10 12 11 10 10 10 9 6 6 7 7 7 6 6 6 7 6 6 4 4 4
11 9 9 9 9 8 7 8 8 9 9 8 7 10 14 25 29 31 27 14 14 10 10 10 10 9 9 9 8 7 9 8 8 7 7 7 7 7 5 6 5 5 6
10 15 10 7 6 6 8 9 9 10 10 10 9 10 10 13 12 13 9 10 10 9 10 10 9 9 9 9 7 8 7 7 7 6 7 7 7 7 8 7 5 6 4
7 5 7 7 8 8 8 9 10 10 10 10 10 12 21 15 13 12 11 10 10 10 10 10 10 10 10 10 8 8 8 7 7 6 6 6 7 6 7 7 5 5 5
5 6 6 7 8 9 8 9 9 10 10 11 10 9 8 10 11 11 11 10 8 9 8 10 9 10 10 10 9 9 9 8 6 7 7 7 6 6 6 7 5 4 4
5 6 6 7 8 10 10 9 9 10 11 12 13 13 10 10 9 11 10 9 8 8 8 8 9 8 7 7 8 9 9 9 8 8 8 7 6 7 6 6 6 4 4
5 7 7 7 8 10 9 10 9 10 12 13 14 13 13 11 10 10 8 9 8 7 8 8 7 10 9 8 7 7 6 7 7 8 11 9 7 7 6 6 6 6 5
6 7 8 8 8 9 10 10 11 11 11 12 11 11 12 11 10 8 7 7 7 7 6 7 6 10 12 12 11 10 10 11 9 8 7 9 11 10 7 7 6 4 4
8 8 7 8 8 8 9 9 9 11 12 11 11 12 12 11 10 8 7 7 7 6 6 5 8 11 12 10 11 12 12 11 10 10 8 8 9 6 6 7 8 5 6
Wind_Direction
289 300 308 299 290 290 270 257 237 220 209 206 208 212 214 203 189 184 181 168 171 159 153 166 164 149 144 150 127 122 125 124 128 168 188 212 94 106 108 137 139 130 117
295 297 308 309 309 299 285 270 253 228 213 211 210 212 215 202 187 174 160 162 173 165 159 168 159 141 149 153 148 139 156 156 130 136 155 129 93 75 138 127 153 138 144
270 289 295 289 292 290 288 287 265 242 221 218 214 213 207 195 185 182 161 164 176 166 165 170 167 156 153 150 153 129 130 107 124 136 142 162 88 86 92 79 107 141 193
255 265 275 280 282 284 284 288 276 252 227 215 223 208 198 185 175 166 151 164 158 161 168 169 170 170 160 155 145 138 126 119 108 112 100 104 95 53 97 137 149 250 204
241 253 258 269 279 287 285 277 276 260 237 211 216 205 183 175 156 156 157 156 164 159 164 166 171 168 156 162 148 144 133 125 137 118 129 102 118 128 168 171 143 133 290
246 253 258 271 276 282 279 271 272 259 241 217 211 204 188 178 157 156 155 155 161 159 160 152 159 146 147 143 138 149 154 144 148 128 165 150 161 167 154 141 128 121 256
237 254 259 257 267 274 279 280 273 252 244 230 214 197 187 183 155 155 153 158 161 160 157 152 152 136 137 129 125 125 103 137 157 149 155 168 143 185 149 116 145 145 189
262 256 258 258 265 274 276 268 267 256 240 225 211 210 183 179 157 150 153 153 148 153 156 155 146 145 144 134 128 115 107 103 122 128 137 146 141 154 145 135 137 115 61
270 269 265 256 260 267 271 261 264 252 236 206 200 182 169 153 150 145 146 146 150 152 153 145 146 143 148 137 126 120 108 89 82 102 106 112 118 135 137 111 102 109 54
271 272 270 256 248 263 265 264 265 258 222 174 213 202 149 148 152 153 147 148 151 146 141 143 150 146 151 142 132 139 129 144 126 114 88 74 88 105 133 116 146 117 123
271 269 262 237 246 255 259 251 251 230 158 163 189 210 165 162 165 155 154 155 154 153 148 155 156 142 150 140 140 150 147 142 132 116 102 90 77 77 88 94 106 125 128
265 264 259 243 246 256 253 257 230 199 160 158 176 152 186 163 159 164 149 144 151 156 156 152 152 149 146 138 136 131 132 130 126 121 115 104 110 102 90 96 91 76 65
265 263 258 246 248 251 248 253 213 176 172 177 165 142 149 195 161 158 141 137 152 150 145 150 147 150 145 127 130 138 133 136 132 130 132 135 146 143 115 82 73 81 63
264 261 252 258 250 248 241 241 202 177 180 175 169 151 154 157 147 161 147 140 130 128 130 140 152 145 134 128 126 146 146 147 149 154 144 123 111 128 124 123 108 96 82
258 256 253 237 240 250 242 231 203 194 183 177 173 163 158 161 169 158 153 152 149 150 135 138 146 149 147 152 147 157 146 137 143 140 126 140 137 136 129 134 125 94 110
254 251 248 237 239 245 242 189 6 201 159 168 163 162 177 158 145 147 139 132 127 141 143 156 159 159 167 160 160 154 144 150 155 141 130 148 152 161 144 133 115 134 141
246 246 242 228 237 239 215 165 165 21 106 157 152 151 155 152 147 139 136 139 146 150 152 158 157 162 161 158 158 157 151 166 152 151 153 151 139 136 140 153 144 146 117
239 237 230 229 230 227 184 166 151 152 153 141 70 142 132 142 139 134 128 123 142 143 160 156 156 155 158 157 156 145 152 145 153 149 144 147 145 143 137 134 152 149 139
233 235 224 223 224 202 178 147 145 140 130 124 111 67 134 138 139 137 143 149 162 162 158 152 152 149 150 147 143 143 151 152 150 149 154 154 149 148 145 141 153 150 135
227 239 217 191 164 145 145 145 135 132 136 137 132 129 126 131 135 145 140 150 153 147 145 143 145 140 142 142 138 143 137 140 144 143 153 148 153 159 156 149 158 154 156
216 193 167 150 148 144 140 143 140 140 145 150 146 152 156 151 153 150 150 155 156 157 153 149 150 150 150 148 144 147 149 147 152 142 144 148 148 141 152 156 157 151 139
164 158 164 149 142 133 137 143 143 141 143 137 139 137 141 140 147 146 152 157 156 147 146 148 148 154 154 150 150 148 150 152 147 152 149 144 145 137 147 151 145 148 146
143 140 139 143 132 124 128 134 137 134 137 137 139 142 143 140 140 146 149 142 133 133 132 130 141 131 126 135 148 150 152 159 163 150 145 145 144 144 146 147 149 150 154
125 126 123 132 128 127 126 129 127 126 133 141 147 142 143 138 135 135 132 128 122 129 134 128 131 137 135 140 149 151 140 137 146 154 143 147 146 134 132 138 152 164 152
80 101 110 121 117 118 124 125 126 134 136 140 140 133 138 130 119 114 113 115 124 115 108 117 128 147 148 147 151 143 133 139 144 133 131 136 139 143 145 148 145 136 128
71 77 86 92 98 107 114 122 130 131 135 133 132 136 135 132 123 118 118 107 99 98 110 115 140 138 141 146 138 133 141 138 135 133 132 134 138 139 137 140 146 145 144